Location: Cicognara
(44.9500°N, 10.4667°E)
Time: 05:03:46
(UTC+00:00)

FALCON 9 DEB - Visible Passes

Search period start: 26 October 2021 00:00
Search period end: 05 November 2021 00:00
Orbit: 353 x 363 km, 53.0° (Epoch: 25 October)

Date Brightness Start Highest point End Pass type
(mag) Time Alt. Az. Time Alt. Az. Time Alt. Az.
26 Oct 3.1 17:40:34 10° SSW 17:43:23 43° SE 17:43:31 42° SE visible
27 Oct 3.7 18:08:38 10° WSW 18:11:00 47° W 18:11:00 47° W visible
28 Oct 3.0 17:01:33 10° SW 17:04:26 51° SE 17:06:36 16° ENE visible
28 Oct 5.7 18:37:18 10° W 18:38:19 17° WNW 18:38:19 17° WNW visible
29 Oct 3.3 17:29:37 10° WSW 17:32:30 51° NNW 17:33:46 28° NE visible
30 Oct 4.5 17:58:11 10° WNW 18:00:44 25° NNW 18:00:48 25° NNW visible
31 Oct 3.6 16:50:20 10° WSW 16:53:11 44° NNW 16:56:01 10° NE visible
31 Oct 5.7 18:26:53 10° NW 18:27:42 14° NW 18:27:42 14° NW visible
01 Nov 4.6 17:18:49 10° WNW 17:21:18 23° NNW 17:22:49 16° NNE visible
02 Nov 4.9 17:47:21 10° NW 17:49:29 18° N 17:49:32 18° N visible
03 Nov 4.6 16:39:11 10° WNW 16:41:36 22° NNW 16:44:01 10° NE visible
03 Nov 5.6 18:15:30 10° NW 18:16:09 13° NNW 18:16:09 13° NNW visible
04 Nov 4.9 17:07:33 10° NW 17:09:39 17° N 17:11:03 13° NNE visible
